Date String (YYYY-MM-DD hh:mm:ss) UTC,Instrument flags,Ambient pressure (hPa),Sample flow (lpm),Bypass flow (lpm),Sample temperature (°C),Ambient temperature (°C),ASC tube jacket temperature (°C),LED temperature (°C),Box temperature (°C),Sample RH (%),Span deviation,Mass concentration (μg/m³),Mass concentration (μg/m³),Mass concentration (μg/m³)
DateTimeUTC,F1_M11,P_M11,Q1_M11,Q2_M11,T1_M11,T2_M11,T3_M11,T4_M11,T5_M11,U1_M11,ZSPAN_M11,X2_M11,X0_M11,X1_M11
2021-11-05 21:00:00,,0826.2,4.99,0.00,30.0,29.1,00.0,38.8,31.7,06.6,0000.0,0001.22,0003.79,0000.86
2021-11-05 21:01:00,,0826.2,5.00,0.00,30.0,29.2,00.0,38.9,31.8,06.6,0000.0,0001.25,0003.84,0000.86
2021-11-05 21:02:00,,0826.2,5.01,0.00,30.0,28.6,00.0,38.9,31.7,06.5,0000.0,0001.25,0003.76,0000.86
2021-11-05 21:03:00,,0826.3,5.00,0.00,29.9,26.5,00.0,38.9,31.2,06.4,0000.0,0001.27,0004.28,0000.87
2021-11-05 21:04:00,,0826.3,5.00,0.00,29.8,25.6,00.0,38.8,31.1,06.3,0000.0,0001.34,0004.43,0000.87
2021-11-05 21:05:00,,0826.2,4.99,0.00,29.7,26.0,00.0,38.8,31.1,06.5,0000.0,0001.35,0004.48,0000.87
2021-11-05 21:06:00,,0826.1,5.01,0.00,29.6,26.4,00.0,38.7,31.0,06.8,0000.0,0001.41,0004.61,0000.89
2021-11-05 21:07:00,,0826.1,4.99,0.00,29.6,26.9,00.0,38.7,31.1,06.6,0000.0,0001.45,0004.77,0000.90
2021-11-05 21:08:00,,0826.2,5.00,0.00,29.6,27.3,00.0,38.7,31.1,06.8,0000.0,0001.45,0004.27,0000.89
2021-11-05 21:09:00,,0826.2,4.99,0.00,29.6,27.7,00.0,38.6,31.2,06.4,0000.0,0001.40,0003.32,0000.89
2021-11-05 21:10:00,,0826.3,5.01,0.00,29.6,27.9,00.0,38.6,31.3,06.5,0000.0,0001.37,0003.22,0000.89
2021-11-05 21:11:00,,0826.2,5.00,0.00,29.6,28.2,00.0,38.6,31.3,06.8,0000.0,0001.37,0003.04,0000.89
2021-11-05 21:12:00,,0826.2,4.99,0.00,29.6,28.3,00.0,38.6,31.3,06.7,0000.0,0001.33,0002.88,0000.89
2021-11-05 21:13:00,,0826.3,5.01,0.00,29.7,28.5,00.0,38.6,31.4,06.6,0000.0,0001.32,0002.87,0000.88
2021-11-05 21:14:00,,0826.2,4.99,0.00,29.7,28.6,00.0,38.6,31.4,06.5,0000.0,0001.33,0002.49,0000.88
2021-11-05 21:15:00,,0826.2,5.00,0.00,29.7,28.7,00.0,38.7,31.5,06.6,0000.0,0001.29,0002.54,0000.87
2021-11-05 21:16:00,,0826.1,5.00,0.00,29.8,28.8,00.0,38.7,31.5,06.9,0000.0,0001.28,0002.60,0000.87
2021-11-05 21:17:00,,0826.1,4.99,0.00,29.8,28.9,00.0,38.7,31.6,06.8,0000.0,0001.25,0002.58,0000.87
2021-11-05 21:18:00,,0826.2,4.99,0.00,29.8,28.9,00.0,38.7,31.6,06.9,0000.0,0001.22,0002.39,0000.87
2021-11-05 21:19:00,,0826.2,5.00,0.00,29.8,29.0,00.0,38.7,31.7,06.9,0000.0,0001.20,0002.28,0000.88
2021-11-05 21:20:00,,0826.2,5.01,0.00,29.9,29.0,00.0,38.8,31.7,06.9,0000.0,0001.17,0002.20,0000.87
2021-11-05 21:21:00,,0826.2,5.00,0.00,29.9,29.1,00.0,38.8,31.7,06.8,0000.0,0001.17,0002.19,0000.86
2021-11-05 21:22:00,,0826.2,5.00,0.00,30.0,29.1,00.0,38.8,31.8,06.7,0000.0,0001.18,0002.25,0000.86
2021-11-05 21:23:00,,0826.2,5.00,0.00,30.0,29.2,00.0,38.8,31.8,06.8,0000.0,0001.21,0002.35,0000.85
2021-11-05 21:24:00,,0826.1,4.99,0.00,30.0,28.3,00.0,38.9,31.6,06.7,0000.0,0001.21,0002.38,0000.86
2021-11-05 21:25:00,,0826.1,5.00,0.00,29.9,26.6,00.0,38.9,31.3,06.9,0000.0,0001.22,0002.75,0000.85
2021-11-05 21:26:00,,0826.2,5.01,0.00,29.8,26.6,00.0,38.8,31.4,06.8,0000.0,0001.21,0002.82,0000.85
2021-11-05 21:27:00,,0826.2,5.00,0.00,29.8,27.0,00.0,38.8,31.3,06.9,0000.0,0001.21,0002.75,0000.85
2021-11-05 21:28:00,,0826.2,4.99,0.00,29.7,27.4,00.0,38.8,31.3,07.0,0000.0,0001.18,0002.63,0000.85
2021-11-05 21:29:00,,0826.2,5.01,0.00,29.7,27.7,00.0,38.8,31.4,06.8,0000.0,0001.16,0002.64,0000.84
2021-11-05 21:30:00,,0826.2,5.00,0.00,29.7,28.0,00.0,38.7,31.4,06.9,0000.0,0001.17,0003.38,0000.84
2021-11-05 21:31:00,,0826.2,5.00,0.00,29.8,28.2,00.0,38.7,31.4,06.9,0000.0,0001.18,0003.44,0000.84
2021-11-05 21:32:00,,0826.2,5.00,0.00,29.8,28.4,00.0,38.7,31.5,06.9,0000.0,0001.23,0003.53,0000.85
2021-11-05 21:33:00,,0826.2,4.99,0.00,29.8,28.6,00.0,38.8,31.5,06.7,0000.0,0001.27,0003.60,0000.85
2021-11-05 21:34:00,,0826.2,5.00,0.00,29.8,28.7,00.0,38.8,31.6,06.9,0000.0,0001.28,0003.59,0000.86
2021-11-05 21:35:00,,0826.2,5.00,0.00,29.9,28.8,00.0,38.8,31.6,07.1,0000.0,0001.30,0003.64,0000.87
2021-11-05 21:36:00,,0826.3,4.99,0.00,29.9,28.9,00.0,38.8,31.7,07.0,0000.0,0001.27,0003.31,0000.87
2021-11-05 21:37:00,,0826.2,5.00,0.00,29.9,29.0,00.0,38.8,31.7,06.7,0000.0,0001.34,0003.85,0000.87
2021-11-05 21:38:00,,0826.2,4.98,0.00,29.9,29.0,00.0,38.8,31.7,06.7,0000.0,0001.36,0005.00,0000.87
2021-11-05 21:39:00,,0826.2,5.01,0.00,30.0,29.1,00.0,38.9,31.8,07.0,0000.0,0001.38,0005.06,0000.87
2021-11-05 21:40:00,,0826.2,5.00,0.00,30.0,29.2,00.0,38.9,31.8,07.0,0000.0,0001.41,0005.13,0000.88
2021-11-05 21:41:00,,0826.2,4.99,0.00,30.0,29.2,00.0,38.9,31.9,07.0,0000.0,0001.40,0004.50,0000.89
2021-11-05 21:42:00,,0826.2,5.01,0.00,30.0,28.6,00.0,38.9,31.7,07.1,0000.0,0001.42,0004.74,0000.90
2021-11-05 21:43:00,,0826.2,5.00,0.00,29.9,26.7,00.0,38.9,31.4,07.1,0000.0,0001.43,0006.49,0000.91
2021-11-05 21:44:00,,0826.2,4.99,0.00,29.9,26.6,00.0,38.9,31.4,07.2,0000.0,0001.37,0006.74,0000.91
2021-11-05 21:45:00,,0826.2,5.01,0.00,29.8,26.9,00.0,38.9,31.3,07.2,0000.0,0001.34,0007.40,0000.91
2021-11-05 21:46:00,,0826.2,5.00,0.00,29.7,27.3,00.0,38.8,31.3,07.3,0000.0,0001.32,0007.36,0000.91
2021-11-05 21:47:00,,0826.3,5.00,0.00,29.7,27.7,00.0,38.8,31.4,07.3,0000.0,0001.35,0007.45,0000.92
2021-11-05 21:48:00,,0826.2,5.00,0.00,29.7,27.9,00.0,38.8,31.4,07.4,0000.0,0001.28,0006.90,0000.92
2021-11-05 21:49:00,,0826.2,5.00,0.00,29.7,28.2,00.0,38.8,31.4,07.4,0000.0,0001.31,0005.95,0000.93
2021-11-05 21:50:00,,0826.3,5.00,0.00,29.8,28.4,00.0,38.8,31.5,07.4,0000.0,0001.33,0006.12,0000.94
2021-11-05 21:51:00,,0826.3,5.00,0.00,29.8,28.5,00.0,38.8,31.5,07.6,0000.0,0001.32,0006.05,0000.94
2021-11-05 21:52:00,,0826.2,5.00,0.00,29.8,28.7,00.0,38.8,31.6,07.6,0000.0,0001.31,0006.14,0000.93
2021-11-05 21:53:00,,0826.2,5.00,0.00,29.9,28.8,00.0,38.8,31.6,07.6,0000.0,0001.28,0005.72,0000.92
2021-11-05 21:54:00,,0826.4,5.00,0.00,29.9,28.9,00.0,38.8,31.7,07.3,0000.0,0001.22,0003.92,0000.90
2021-11-05 21:55:00,,0826.4,5.00,0.00,29.9,29.0,00.0,38.8,31.7,07.2,0000.0,0001.24,0003.66,0000.90
2021-11-05 21:56:00,,0826.4,5.00,0.00,29.9,29.0,00.0,38.8,31.7,07.4,0000.0,0001.27,0002.98,0000.89
2021-11-05 21:57:00,,0826.4,5.01,0.00,30.0,29.1,00.0,38.9,31.7,07.3,0000.0,0001.30,0002.98,0000.89
2021-11-05 21:58:00,,0826.4,4.99,0.00,30.0,29.1,00.0,38.9,31.8,07.3,0000.0,0001.30,0002.72,0000.88
2021-11-05 21:59:00,,0826.4,5.00,0.00,30.0,29.2,00.0,38.9,31.8,07.2,0000.0,0001.34,0002.68,0000.89
